| time (UTC) | temp F | wind direction | speed knots | gust knots | rain 1hr in | rain 24hr in | rain mn in | humidity % | barometer mb |
| 20260507074922 | 55 | 90 | 11.3 | 0.0 | 0.00 | 0.00 | 0.00 | 1015.0 | |
| 20260507073908 | 56 | 90 | 8.7 | 0.0 | 0.00 | 0.00 | 0.00 | 1015.0 | |
| 20260507072854 | 56 | 90 | 3.5 | 0.0 | 0.00 | 0.00 | 0.00 | 1014.9 | |
| 20260507071841 | 57 | 90 | 8.7 | 0.0 | 0.00 | 0.00 | 0.00 | 1014.9 | |
| 20260507070827 | 57 | 90 | 5.2 | 0.0 | 0.00 | 0.00 | 0.00 | 1015.0 | |
| 20260507065814 | 56 | 90 | 7.8 | 0.0 | 0.00 | 0.00 | 0.00 | 1015.0 | |
| 20260507064800 | 56 | 90 | 6.1 | 0.0 | 0.00 | 0.00 | 0.00 | 1015.0 | |
| 20260507063746 | 56 | 45 | 7.0 | 0.0 | 0.00 | 0.00 | 0.00 | 1014.9 | |
| 20260507062733 | 55 | 90 | 7.8 | 0.0 | 0.00 | 0.00 | 0.00 | 1015.0 | |
| 20260507061719 | 55 | 90 | 7.0 | 0.0 | 0.00 | 0.00 | 0.00 | 1014.9 | |
| 20260507060705 | 54 | 90 | 5.2 | 0.0 | 0.00 | 0.00 | 0.00 | 1015.0 | |
| 20260507055652 | 53 | 135 | 2.6 | 0.0 | 0.00 | 0.00 | 0.00 | 1015.0 | |
| 20260507054638 | 52 | 90 | 5.2 | 0.0 | 0.00 | 0.00 | 0.00 | 1014.9 | |
| 20260507053625 | 51 | 90 | 3.5 | 0.0 | 0.00 | 0.00 | 0.00 | 1014.9 | |
| 20260507052611 | 50 | 90 | 5.2 | 0.0 | 0.00 | 0.00 | 0.00 | 1014.9 | |
| 20260507051557 | 49 | 135 | 7.0 | 0.0 | 0.00 | 0.00 | 0.00 | 1014.8 | |
| 20260507050544 | 48 | 90 | 7.8 | 0.0 | 0.00 | 0.00 | 0.00 | 1014.8 | |
| 20260507045530 | 46 | 135 | 6.1 | 0.0 | 0.00 | 0.00 | 0.00 | 1014.8 | |
| 20260507044452 | 46 | 135 | 6.1 | 0.0 | 0.00 | 0.00 | 0.00 | 1014.8 | |
| 20260507043438 | 46 | 135 | 5.2 | 0.0 | 0.00 | 0.00 | 0.00 | 1014.8 | |
| 20260507042424 | 46 | 90 | 7.0 | 0.0 | 0.00 | 0.00 | 0.00 | 1014.8 | |
| 20260507041411 | 46 | 135 | 4.3 | 0.0 | 0.00 | 0.00 | 0.00 | 1014.8 | |
| 20260507040357 | 45 | 90 | 7.0 | 0.0 | 0.00 | 0.00 | 0.00 | 1014.7 | |
| 20260507033702 | 47 | 90 | 7.8 | 0.0 | 0.00 | 0.00 | 0.00 | 1014.8 | |
| 20260507032648 | 47 | 90 | 9.6 | 0.0 | 0.00 | 0.00 | 0.00 | 1014.8 | |
| 20260507031634 | 47 | 90 | 9.6 | 0.0 | 0.00 | 0.00 | 0.00 | 1014.9 | |
| 20260507030621 | 47 | 90 | 9.6 | 0.0 | 0.00 | 0.00 | 0.00 | 1014.9 | |
| 20260507025607 | 47 | 90 | 7.8 | 0.0 | 0.00 | 0.00 | 0.00 | 1014.9 | |
| 20260507024554 | 47 | 90 | 9.6 | 0.0 | 0.00 | 0.00 | 0.00 | 1014.9 | |
| 20260507023540 | 46 | 90 | 7.0 | 0.0 | 0.00 | 0.00 | 0.00 | 1014.9 | |
| 20260507022526 | 46 | 135 | 6.1 | 0.0 | 0.00 | 0.00 | 0.00 | 1015.1 | |
| 20260507021513 | 46 | 135 | 7.0 | 0.0 | 0.00 | 0.00 | 0.00 | 1015.0 | |
| 20260507020459 | 46 | 90 | 7.8 | 0.0 | 0.00 | 0.00 | 0.00 | 1015.0 | |
| 20260507015445 | 46 | 135 | 7.0 | 0.0 | 0.00 | 0.00 | 0.00 | 1015.1 | |
| 20260507014432 | 45 | 135 | 6.1 | 0.0 | 0.00 | 0.00 | 0.00 | 1015.1 | |
| 20260507013418 | 46 | 135 | 7.0 | 0.0 | 0.00 | 0.00 | 0.00 | 1015.2 | |
| 20260507012404 | 46 | 90 | 7.0 | 0.0 | 0.00 | 0.00 | 0.00 | 1015.2 | |
| 20260507011351 | 46 | 135 | 7.0 | 0.0 | 0.00 | 0.00 | 0.00 | 1015.3 | |
| 20260507010338 | 46 | 135 | 7.0 | 0.0 | 0.00 | 0.00 | 0.00 | 1015.3 | |
| 20260507005324 | 46 | 135 | 5.2 | 0.0 | 0.00 | 0.00 | 0.00 | 1015.5 | |
| 20260507004310 | 46 | 135 | 6.1 | 0.0 | 0.00 | 0.00 | 0.00 | 1015.6 | |
| 20260507003257 | 46 | 90 | 6.1 | 0.0 | 0.00 | 0.00 | 0.00 | 1015.6 | |
| 20260507002243 | 46 | 90 | 7.8 | 0.0 | 0.00 | 0.00 | 0.00 | 1015.7 | |
| 20260507001229 | 46 | 90 | 6.1 | 0.0 | 0.00 | 0.00 | 0.00 | 1015.8 | |
| 20260507000216 | 46 | 90 | 7.8 | 0.0 | 0.00 | 0.00 | 0.00 | 1015.8 | |
| 20260506235202 | 46 | 90 | 7.8 | 0.0 | 0.00 | 0.00 | 0.00 | 1015.8 | |
| 20260506234148 | 46 | 45 | 5.2 | 0.0 | 0.00 | 0.00 | 0.00 | 1016.0 | |
| 20260506233135 | 46 | 90 | 6.1 | 0.0 | 0.00 | 0.00 | 0.00 | 1016.1 | |
| 20260506232121 | 46 | 90 | 5.2 | 0.0 | 0.00 | 0.00 | 0.00 | 1016.1 | |
| 20260506231107 | 46 | 90 | 7.0 | 0.0 | 0.00 | 0.00 | 0.00 | 1016.2 | |
| 20260506230054 | 47 | 90 | 7.0 | 0.0 | 0.00 | 0.00 | 0.00 | 1016.1 | |
| 20260506225040 | 47 | 45 | 9.6 | 0.0 | 0.00 | 0.00 | 0.00 | 1016.1 | |
| 20260506224026 | 47 | 45 | 10.4 | 0.0 | 0.00 | 0.00 | 0.00 | 1016.1 | |
| 20260506222901 | 47 | 45 | 9.6 | 0.0 | 0.00 | 0.00 | 0.00 | 1016.2 | |
| 20260506221847 | 47 | 45 | 9.6 | 0.0 | 0.00 | 0.00 | 0.00 | 1016.2 | |
| 20260506220833 | 46 | 90 | 5.2 | 0.0 | 0.00 | 0.00 | 0.00 | 1016.3 | |
| 20260506215820 | 47 | 135 | 3.5 | 0.0 | 0.00 | 0.00 | 0.00 | 1016.4 | |
| 20260506214806 | 46 | 90 | 5.2 | 0.0 | 0.00 | 0.00 | 0.00 | 1016.4 | |
| 20260506213753 | 47 | 90 | 3.5 | 0.0 | 0.00 | 0.00 | 0.00 | 1016.4 | |
| 20260506212739 | 47 | 90 | 2.6 | 0.0 | 0.00 | 0.00 | 0.00 | 1016.3 | |
| 20260506211725 | 47 | 90 | 2.6 | 0.0 | 0.00 | 0.00 | 0.00 | 1016.4 | |
| 20260506210712 | 46 | 90 | 5.2 | 0.0 | 0.00 | 0.00 | 0.00 | 1016.4 | |
| 20260506205658 | 46 | 135 | 3.5 | 0.0 | 0.00 | 0.00 | 0.00 | 1016.4 | |
| 20260506204644 | 47 | 90 | 2.6 | 0.0 | 0.00 | 0.00 | 0.00 | 1016.4 | |
| 20260506203631 | 46 | 0.0 | 0.0 | 0.00 | 0.00 | 0.00 | 1016.4 | ||
| 20260506202617 | 47 | 135 | 1.7 | 0.0 | 0.00 | 0.00 | 0.00 | 1016.4 | |
| 20260506201604 | 47 | 0.0 | 0.0 | 0.00 | 0.00 | 0.00 | 1016.4 | ||
| 20260506200550 | 48 | 315 | 1.7 | 0.0 | 0.00 | 0.00 | 0.00 | 1016.2 | |
| 20260506195536 | 48 | 315 | 3.5 | 0.0 | 0.00 | 0.00 | 0.00 | 1016.2 | |
| 20260506194523 | 48 | 45 | 5.2 | 0.0 | 0.00 | 0.00 | 0.00 | 1016.1 | |
| 20260506193509 | 48 | 0 | 3.5 | 0.0 | 0.00 | 0.00 | 0.00 | 1016.0 | |
| 20260506192455 | 48 | 0 | 5.2 | 0.0 | 0.00 | 0.00 | 0.00 | 1016.0 | |
| 20260506191442 | 48 | 0 | 6.1 | 0.0 | 0.00 | 0.00 | 0.00 | 1015.8 | |
| 20260506190428 | 48 | 0 | 3.5 | 0.0 | 0.00 | 0.00 | 0.00 | 1015.8 | |
| 20260506185414 | 48 | 0 | 5.2 | 0.0 | 0.00 | 0.00 | 0.00 | 1015.6 | |
| 20260506184401 | 49 | 45 | 9.6 | 0.0 | 0.00 | 0.00 | 0.00 | 1015.5 | |
| 20260506183347 | 49 | 45 | 7.0 | 0.0 | 0.00 | 0.00 | 0.00 | 1015.5 | |
| 20260506182334 | 50 | 0 | 7.8 | 0.0 | 0.00 | 0.00 | 0.00 | 1015.6 | |
| 20260506181320 | 51 | 0 | 2.6 | 0.0 | 0.00 | 0.00 | 0.00 | 1015.6 | |
| 20260506180306 | 52 | 0 | 3.5 | 0.0 | 0.00 | 0.00 | 0.00 | 1015.5 | |
| 20260506175253 | 54 | 45 | 3.5 | 0.0 | 0.00 | 0.00 | 0.00 | 1015.5 | |
| 20260506174239 | 54 | 315 | 3.5 | 0.0 | 0.00 | 0.00 | 0.00 | 1015.5 | |
| 20260506173226 | 55 | 0 | 2.6 | 0.0 | 0.00 | 0.00 | 0.00 | 1015.6 | |
| 20260506172212 | 55 | 315 | 3.5 | 0.0 | 0.00 | 0.00 | 0.00 | 1015.6 | |
| 20260506171158 | 55 | 0 | 3.5 | 0.0 | 0.00 | 0.00 | 0.00 | 1015.6 | |
| 20260506170145 | 57 | 0.0 | 0.0 | 0.00 | 0.00 | 0.00 | 1015.6 | ||
| 20260506165131 | 58 | 45 | 3.5 | 0.0 | 0.00 | 0.00 | 0.00 | 1015.6 | |
| 20260506164117 | 58 | 45 | 1.7 | 0.0 | 0.00 | 0.00 | 0.00 | 1015.6 | |
| 20260506163104 | 57 | 0 | 1.7 | 0.0 | 0.00 | 0.00 | 0.00 | 1015.6 | |
| 20260506162801 | 58 | 0 | 2.6 | 0.0 | 0.00 | 0.00 | 0.00 | 1015.5 | |
| 20260506162050 | 58 | 0 | 2.6 | 0.0 | 0.00 | 0.00 | 0.00 | 1015.5 | |
| 20260506161036 | 58 | 0 | 1.7 | 0.0 | 0.00 | 0.00 | 0.00 | 1015.5 | |
| 20260506160023 | 58 | 0.0 | 0.0 | 0.00 | 0.00 | 0.00 | 1015.6 | ||
| 20260506155009 | 59 | 0 | 4.3 | 0.0 | 0.00 | 0.00 | 0.00 | 1015.5 | |
| 20260506153956 | 59 | 45 | 4.3 | 0.0 | 0.00 | 0.00 | 0.00 | 1015.5 | |
| 20260506152942 | 62 | 0.0 | 0.0 | 0.00 | 0.00 | 0.00 | 1015.6 | ||
| 20260506151928 | 61 | 0 | 2.6 | 0.0 | 0.00 | 0.00 | 0.00 | 1015.6 | |
| 20260506150915 | 60 | 0 | 3.5 | 0.0 | 0.00 | 0.00 | 0.00 | 1015.6 | |
| 20260506145901 | 61 | 0.0 | 0.0 | 0.00 | 0.00 | 0.00 | 1015.8 | ||
| 20260506144847 | 62 | 315 | 2.6 | 0.0 | 0.00 | 0.00 | 0.00 | 1015.7 | |
| 20260506143834 | 63 | 0 | 1.7 | 0.0 | 0.00 | 0.00 | 0.00 | 1015.8 | |
| 20260506142820 | 69 | 315 | 2.6 | 0.0 | 0.00 | 0.00 | 0.00 | 1015.8 | |
| 20260506141807 | 64 | 0.0 | 0.0 | 0.00 | 0.00 | 0.00 | 1015.9 | ||
| 20260506140753 | 60 | 315 | 3.5 | 0.0 | 0.00 | 0.00 | 0.00 | 1015.9 | |
| 20260506135739 | 60 | 0.0 | 0.0 | 0.00 | 0.00 | 0.00 | 1015.9 | ||
| 20260506134726 | 60 | 270 | 5.2 | 0.0 | 0.00 | 0.00 | 0.00 | 1015.9 | |
| 20260506133712 | 61 | 270 | 5.2 | 0.0 | 0.00 | 0.00 | 0.00 | 1015.8 | |
| 20260506132658 | 57 | 270 | 4.3 | 0.0 | 0.00 | 0.00 | 0.00 | 1015.7 | |
| 20260506131645 | 55 | 270 | 2.6 | 0.0 | 0.00 | 0.00 | 0.00 | 1015.7 | |
| 20260506130631 | 55 | 270 | 5.2 | 0.0 | 0.00 | 0.00 | 0.00 | 1015.5 | |
| 20260506125617 | 53 | 270 | 8.7 | 0.0 | 0.00 | 0.00 | 0.00 | 1015.4 | |
| 20260506124604 | 53 | 225 | 7.8 | 0.0 | 0.00 | 0.00 | 0.00 | 1015.4 | |
| 20260506123550 | 55 | 270 | 7.8 | 0.0 | 0.00 | 0.00 | 0.00 | 1015.3 | |
| 20260506122537 | 54 | 225 | 7.8 | 0.0 | 0.00 | 0.00 | 0.00 | 1015.3 | |
| 20260506121523 | 54 | 225 | 7.0 | 0.0 | 0.00 | 0.00 | 0.00 | 1015.4 | |
| 20260506120509 | 56 | 270 | 2.6 | 0.0 | 0.00 | 0.00 | 0.00 | 1015.4 | |
| 20260506115456 | 54 | 270 | 3.5 | 0.0 | 0.00 | 0.00 | 0.00 | 1015.4 | |
| 20260506114442 | 54 | 270 | 10.4 | 0.0 | 0.00 | 0.00 | 0.00 | 1015.3 | |
| 20260506113428 | 54 | 225 | 7.0 | 0.0 | 0.00 | 0.00 | 0.00 | 1015.3 | |
| 20260506112415 | 55 | 270 | 6.1 | 0.0 | 0.00 | 0.00 | 0.00 | 1015.4 | |
| 20260506111401 | 55 | 225 | 5.2 | 0.0 | 0.00 | 0.00 | 0.00 | 1015.4 | |
| 20260506110348 | 56 | 225 | 9.6 | 0.0 | 0.00 | 0.00 | 0.00 | 1015.2 | |
| 20260506105334 | 56 | 225 | 7.0 | 0.0 | 0.00 | 0.00 | 0.00 | 1015.3 | |
| 20260506104320 | 56 | 225 | 9.6 | 0.0 | 0.00 | 0.00 | 0.00 | 1015.2 | |
| 20260506103307 | 56 | 270 | 5.2 | 0.0 | 0.00 | 0.00 | 0.00 | 1015.2 | |
| 20260506102253 | 58 | 225 | 4.3 | 0.0 | 0.00 | 0.00 | 0.00 | 1015.2 | |
| 20260506101239 | 58 | 225 | 7.0 | 0.0 | 0.00 | 0.00 | 0.00 | 1015.1 | |
| 20260506100226 | 56 | 225 | 7.8 | 0.0 | 0.00 | 0.00 | 0.00 | 1015.2 | |
| 20260506095212 | 56 | 225 | 8.7 | 0.0 | 0.00 | 0.00 | 0.00 | 1015.1 | |
| 20260506094158 | 55 | 270 | 6.1 | 0.0 | 0.00 | 0.00 | 0.00 | 1015.1 | |
| 20260506093145 | 58 | 270 | 8.7 | 0.0 | 0.00 | 0.00 | 0.00 | 1015.0 | |
| 20260506092131 | 56 | 270 | 7.8 | 0.0 | 0.00 | 0.00 | 0.00 | 1014.8 | |
| 20260506091118 | 56 | 225 | 7.0 | 0.0 | 0.00 | 0.00 | 0.00 | 1014.6 | |
| 20260506090104 | 56 | 225 | 6.1 | 0.0 | 0.00 | 0.00 | 0.00 | 1014.8 | |
| 20260506085050 | 57 | 225 | 11.3 | 0.0 | 0.00 | 0.00 | 0.00 | 1014.6 | |
| 20260506084037 | 55 | 270 | 8.7 | 0.0 | 0.00 | 0.00 | 0.00 | 1014.6 | |
| 20260506083023 | 57 | 270 | 6.1 | 0.0 | 0.00 | 0.00 | 0.00 | 1014.6 | |
| 20260506082009 | 61 | 225 | 8.7 | 0.0 | 0.00 | 0.00 | 0.00 | 1014.5 | |
| 20260506080956 | 59 | 225 | 7.0 | 0.0 | 0.00 | 0.00 | 0.00 | 1014.5 |